{"data":{"norad_id":49299,"intl_designator":"2021-090W","name":"ONEWEB-0373","alt_names":[],"object_type":"PAYLOAD","status":"ACTIVE","operator":null,"country":"UK","launch_date":"2021-10-14","launch_site_code":"VOSTO","launch_vehicle":null,"mission":null,"orbit_class":"UNKNOWN","rcs_meters":null,"size_class":null,"mass_kg":null,"dimensions":null,"purposes":["comms"],"wikipedia_slug":null,"has_3d_model":false,"image_url":null,"decayed_at":null,"tle_current":{"epoch":"2026-05-25T01:57:42.079392Z","epoch_age_seconds":64455,"freshness":"FRESH","line1":"1 49299U 21090W   26145.08173703  .00000079  00000+0  16303-3 0  9993","line2":"2 49299  87.9172 279.0490 0001952 101.5438 258.5914 13.20770436227973","mean_motion":13.20770436,"eccentricity":0.0001952,"inclination_deg":87.9172,"raan_deg":279.049,"arg_perigee_deg":101.5438,"mean_anomaly_deg":258.5914,"bstar":0.00016303,"rev_number":22797,"period_min":109.0272738358,"perigee_km":1180.302931454,"apogee_km":1183.2543225148,"semimajor_km":7559.9156269844,"source":"CELESTRAK","updated_at":"2026-05-25T13:38:22.523628Z"}}}